Wooster, OH

11:36 AM EST on December 12, 2019 (GMT -0500)
Wayne County

Weather History for KBJJ - October, 2019

Change the Weather History Date:

Tuesday, October 29, 2019

  Actual Average Record
Temperature  
Mean Temperature 48 °F -  
Max Temperature 59 °F 55 °F 75 °F (1999)
Min Temperature 37 °F 35 °F 26 °F (2011)
Degree Days  
Heating Degree Days 17    
Moisture  
Dew Point 46 °F    
Average Humidity 85    
Maximum Humidity 100    
Minimum Humidity 69    
Precipitation  
Precipitation 0.00 in - - ()
Sea Level Pressure  
Sea Level Pressure 30.16 in    
Wind  
Wind Speed 2 mph (SW)    
Max Wind Speed 9 mph    
Max Gust Speed -    
Visibility 9 miles    
Events      
Averages and records for this station are not official NWS values.
T = Trace of Precipitation, MM = Missing Value Source: NWS Daily Summary

Daily Weather History Graph

Daily Weather History Graph

Search for Another Location

Airport or City:

Astronomy

Oct. 29, 2019 Rise Set
Actual Time 7:54 AM EDT 6:27 PM EDT
Civil Twilight 7:26 AM EDT 6:55 PM EDT
Nautical Twilight 6:53 AM EDT 7:28 PM EDT
Astronomical Twilight 6:21 AM EDT 7:59 PM EDT
Moon 9:26 AM EDT (10/29) 7:50 PM EDT (10/29)
Length of Visible Light 11h 29m
Length of Day
10h 33m
Waxing Crescent, 3% of the Moon is Illuminated
Oct 29
Waxing Crescent
Nov 4
First Quarter
Nov 12
Full
Nov 19
Last Quarter
Nov 26
New

Hourly Weather History & Observations

Time (EDT) Temp. Dew Point Humidity Pressure Visibility Wind Dir Wind Speed Gust Speed Precip Events Conditions
12:56 AM 39.0 °F 37.9 °F 96% 30.07 in 6.0 mi Calm Calm - N/A   Clear
1:56 AM 37.9 °F 37.9 °F 100% 30.07 in 7.0 mi Calm Calm - N/A   Clear
2:56 AM 39.0 °F 37.0 °F 93% 30.06 in 4.0 mi Calm Calm - N/A   Clear
3:56 AM 37.9 °F 37.0 °F 97% 30.06 in 8.0 mi Calm Calm - N/A   Clear
4:56 AM 37.9 °F 37.0 °F 97% 30.06 in 10.0 mi Calm Calm - N/A   Clear
5:56 AM 39.0 °F 37.9 °F 96% 30.07 in 6.0 mi Calm Calm - N/A   Partly Cloudy
6:56 AM 41.0 °F 39.9 °F 96% 30.09 in 7.0 mi Calm Calm - N/A   Partly Cloudy
7:56 AM 48.0 °F 46.0 °F 93% 30.11 in 10.0 mi Calm Calm - N/A   Overcast
8:56 AM 50.0 °F 48.0 °F 93% 30.12 in 10.0 mi Calm Calm - N/A   Scattered Clouds
9:56 AM 54.0 °F 48.9 °F 83% 30.15 in 10.0 mi WNW 6.9 mph - N/A   Partly Cloudy
10:56 AM 54.0 °F 50.0 °F 86% 30.17 in 7.0 mi West 5.8 mph - N/A   Overcast
11:05 AM 55.0 °F 51.1 °F 86% 30.15 in 7.0 mi West 4.6 mph - N/A   Overcast
11:56 AM 57.0 °F 51.1 °F 81% 30.17 in 10.0 mi WSW 8.1 mph - N/A   Overcast
12:30 PM 57.9 °F 51.1 °F 78% 30.17 in 10.0 mi Variable 6.9 mph - N/A   Overcast
12:41 PM 57.9 °F 51.1 °F 78% 30.17 in 10.0 mi SW 9.2 mph - N/A   Overcast
12:56 PM 57.9 °F 51.1 °F 78% 30.18 in 10.0 mi WSW 6.9 mph - N/A   Overcast
1:56 PM 59.0 °F 50.0 °F 72% 30.18 in 9.0 mi West 8.1 mph - N/A   Overcast
2:56 PM 57.9 °F 48.0 °F 70% 30.17 in 10.0 mi WSW 6.9 mph - N/A   Overcast
3:56 PM 57.9 °F 48.0 °F 70% 30.17 in 10.0 mi SW 8.1 mph - N/A   Overcast
4:56 PM 57.0 °F 48.0 °F 72% 30.19 in 10.0 mi SSW 6.9 mph - N/A   Overcast
5:56 PM 57.0 °F 46.9 °F 69% 30.21 in 10.0 mi SW 6.9 mph - N/A   Overcast
6:56 PM 55.0 °F 48.0 °F 77% 30.22 in 10.0 mi SSW 4.6 mph - N/A   Overcast
7:56 PM 55.0 °F 48.0 °F 77% 30.23 in 10.0 mi SSW 3.5 mph - N/A   Overcast
8:32 PM 55.0 °F 48.0 °F 77% 30.22 in 10.0 mi South 4.6 mph - N/A   Overcast
8:56 PM 53.1 °F 46.9 °F 80% 30.23 in 10.0 mi SSW 3.5 mph - N/A   Partly Cloudy
9:56 PM 46.0 °F 44.1 °F 93% 30.24 in 9.0 mi Calm Calm - N/A   Clear
10:56 PM 44.1 °F 43.0 °F 96% 30.25 in 7.0 mi Calm Calm - N/A   Clear
11:56 PM 44.1 °F 43.0 °F 96% 30.24 in 5.0 mi Calm Calm - N/A   Clear